Change the Weather History Date:

Friday, February 22, 2013

  Actual Average Record
Temperature  
Mean Temperature 25 °F 35 °F  
Max Temperature 38 °F 48 °F 67 °F (1958)
Min Temperature 12 °F 22 °F 1 °F (1955)
Degree Days  
Heating Degree Days 40 30  
Month to date heating degree days 740 711  
Since 1 July heating degree days 4388 4386  
Cooling Degree Days 0 0  
Month to date cooling degree days 0 0  
Year to date cooling degree days 0 0  
Moisture  
Dew Point 13 °F    
Average Humidity 62    
Maximum Humidity 88    
Minimum Humidity 35    
Precipitation  
Precipitation 0.00 in 0.03 in 0.48 in (2015)
Month to date precipitation 0.85 0.75  
Year to date precipitation 1.83 1.61  
Sea Level Pressure  
Sea Level Pressure 30.13 in    
Wind  
Wind Speed 5 mph (North)    
Max Wind Speed 16 mph    
Max Gust Speed 21 mph    
Visibility 10 miles    
Events      
T = Trace of Precipitation, MM = Missing Value Source: NWS Daily Summary

Daily Weather History Graph

Daily Weather History Graph

Search for Another Location

Airport or City:

Trip Planner

Search our weather history database for the weather conditions in past years. The results will help you decide how hot, cold, wet, or windy it might be!

Date:

Astronomy

Feb. 22, 2013 Rise Set
Actual Time 7:12 AM MST 6:19 PM MST
Civil Twilight 6:46 AM MST 6:45 PM MST
Nautical Twilight 6:15 AM MST 7:16 PM MST
Astronomical Twilight 5:45 AM MST 7:46 PM MST
Moon 3:36 PM MST (2/22) 4:58 AM MST (2/22)
Length of Visible Light 11h 59m
Length of Day
11h 06m
Waxing Gibbous, 90% of the Moon is Illuminated
Feb 22
Waxing Gibbous
Feb 25
Full
Mar 4
Last Quarter
Mar 11
New
Mar 19
First Quarter

Hourly Weather History & Observations

Time (MST) Temp. Windchill Dew Point Humidity Pressure Visibility Wind Dir Wind Speed Gust Speed Precip Events Conditions
1:53 AM 16.0 °F - 12.0 °F 84% 30.08 in 10.0 mi Calm Calm - N/A   Clear
2:53 AM 16.0 °F - 10.9 °F 81% 30.08 in 10.0 mi Calm Calm - N/A   Clear
3:53 AM 14.0 °F - 10.0 °F 84% 30.07 in 10.0 mi Calm Calm - N/A   Clear
4:53 AM 14.0 °F - 10.0 °F 84% 30.09 in 10.0 mi Calm Calm - N/A   Clear
5:53 AM 12.9 °F - 9.0 °F 84% 30.10 in 10.0 mi Calm Calm - N/A   Clear
6:53 AM 14.0 °F - 9.0 °F 80% 30.12 in 10.0 mi Calm Calm - N/A   Clear
7:53 AM 16.0 °F - 10.9 °F 81% 30.14 in 10.0 mi Calm Calm - N/A   Clear
8:53 AM 19.9 °F 14.9 °F 12.0 °F 71% 30.17 in 10.0 mi North 3.5 mph - N/A   Clear
9:53 AM 24.1 °F - 12.9 °F 62% 30.16 in 10.0 mi Calm Calm - N/A   Clear
10:53 AM 30.0 °F 26.5 °F 15.1 °F 54% 30.16 in 10.0 mi Variable 3.5 mph - N/A   Clear
11:53 AM 33.1 °F 27.7 °F 12.9 °F 43% 30.17 in 10.0 mi NNE 5.8 mph - N/A   Clear
12:53 PM 36.0 °F 29.6 °F 15.1 °F 43% 30.14 in 10.0 mi North 8.1 mph 16.1 mph N/A   Partly Cloudy
1:53 PM 37.0 °F 29.8 °F 12.9 °F 37% 30.12 in 10.0 mi NNW 10.4 mph 18.4 mph N/A   Partly Cloudy
2:53 PM 37.0 °F 28.5 °F 14.0 °F 39% 30.12 in 10.0 mi North 13.8 mph 19.6 mph N/A   Clear
3:53 PM 37.0 °F 28.9 °F 12.9 °F 37% 30.14 in 10.0 mi NNE 12.7 mph 17.3 mph N/A   Clear
4:53 PM 37.0 °F 29.8 °F 14.0 °F 39% 30.13 in 10.0 mi NNE 10.4 mph - N/A   Clear
5:53 PM 34.0 °F 27.2 °F 12.9 °F 42% 30.16 in 10.0 mi North 8.1 mph - N/A   Clear
6:53 PM 28.9 °F 25.2 °F 16.0 °F 58% 30.17 in 10.0 mi NNW 3.5 mph - N/A   Clear
7:53 PM 27.0 °F - 17.1 °F 66% 30.19 in 10.0 mi Calm Calm - N/A   Clear
8:53 PM 28.0 °F 21.7 °F 15.1 °F 58% 30.16 in 10.0 mi SSE 5.8 mph - N/A   Clear
9:53 PM 26.1 °F 19.4 °F 16.0 °F 66% 30.17 in 10.0 mi SSW 5.8 mph - N/A   Clear
10:53 PM 27.0 °F 19.5 °F 15.1 °F 61% 30.12 in 10.0 mi SSE 6.9 mph - N/A   Clear
11:53 PM 24.1 °F 17.0 °F 16.0 °F 71% 30.10 in 10.0 mi South 5.8 mph - N/A   Clear